Photometre #851[NE_1.6_Dp] Glasgow_MO AOT

File : 20220920_851.hum

20/09/2022,07:02:38,TEMP=12.1,BA=5.64,STAT.A,ExtBa=12.10
20/09/2022,07:07:15,TEMP=12.2,BA=5.64,STAT.A,ExtBa=12.10
20/09/2022,07:12:39,TEMP=12.4,BA=5.64,STAT.A,ExtBa=12.10
20/09/2022,07:19:06,TEMP=12.4,BA=5.64,STAT.A,ExtBa=12.10
20/09/2022,07:26:54,TEMP=12.6,BA=5.64,STAT.A,ExtBa=12.10
20/09/2022,07:36:34,TEMP=12.8,BA=5.64,STAT.A,ExtBa=12.10
20/09/2022,07:48:23,TEMP=13.1,BA=5.64,STAT.D,ExtBa=12.10
20/09/2022,07:50:22,TEMP=13.5,BA=5.64,STAT.B,ExtBa=12.10
20/09/2022,07:54:48,TEMP=13.4,BA=5.64,STAT.A,ExtBa=12.10
20/09/2022,08:01:29,TEMP=13.5,BA=5.64,STAT.A,ExtBa=12.10
20/09/2022,08:09:04,TEMP=13.6,BA=5.64,STAT.A,ExtBa=12.10
20/09/2022,08:17:46,TEMP=13.7,BA=5.64,STAT.A,ExtBa=12.10
20/09/2022,08:27:53,TEMP=13.9,BA=5.64,STAT.C,ExtBa=12.10
20/09/2022,08:39:49,TEMP=14.5,BA=5.60,STAT.A,ExtBa=12.00
20/09/2022,08:42:24,TEMP=14.6,BA=5.64,STAT.D,ExtBa=12.00
20/09/2022,08:54:13,TEMP=14.9,BA=5.64,STAT.A,ExtBa=12.10
20/09/2022,08:57:24,TEMP=15.4,BA=5.64,STAT.D,ExtBa=12.00
20/09/2022,09:00:24,TEMP=15.9,BA=5.64,STAT.D,ExtBa=12.00
20/09/2022,09:03:24,TEMP=16.3,BA=5.64,STAT.D,ExtBa=12.00
20/09/2022,09:06:24,TEMP=16.8,BA=5.64,STAT.D,ExtBa=12.00
20/09/2022,09:09:24,TEMP=17.3,BA=5.64,STAT.D,ExtBa=12.00
20/09/2022,09:12:03,TEMP=17.6,BA=5.64,STAT.A,ExtBa=12.00
20/09/2022,09:14:24,TEMP=17.8,BA=5.64,STAT.F,ExtBa=12.00
20/09/2022,09:27:20,TEMP=17.2,BA=5.64,STAT.D,ExtBa=12.10
20/09/2022,09:39:24,TEMP=17.5,BA=5.64,STAT.D,ExtBa=12.10
20/09/2022,09:42:20,TEMP=17.6,BA=5.60,STAT.D,ExtBa=12.00
20/09/2022,09:45:24,TEMP=17.6,BA=5.60,STAT.D,ExtBa=12.00
20/09/2022,09:48:24,TEMP=17.8,BA=5.60,STAT.D,ExtBa=12.00
20/09/2022,09:51:24,TEMP=18.0,BA=5.60,STAT.D,ExtBa=12.00
20/09/2022,09:54:24,TEMP=18.2,BA=5.60,STAT.D,ExtBa=12.00
20/09/2022,09:57:20,TEMP=18.4,BA=5.60,STAT.D,ExtBa=12.00
20/09/2022,10:00:24,TEMP=18.6,BA=5.64,STAT.D,ExtBa=12.00
20/09/2022,10:03:24,TEMP=18.7,BA=5.64,STAT.D,ExtBa=12.00
20/09/2022,10:06:24,TEMP=19.0,BA=5.64,STAT.D,ExtBa=12.00
20/09/2022,10:09:24,TEMP=19.3,BA=5.64,STAT.D,ExtBa=12.00
20/09/2022,10:12:22,TEMP=19.6,BA=5.56,STAT.F,ExtBa=12.00
20/09/2022,10:37:40,TEMP=21.6,BA=5.56,STAT.D,ExtBa=12.00
20/09/2022,10:42:20,TEMP=21.1,BA=5.64,STAT.D,ExtBa=12.00
20/09/2022,10:54:24,TEMP=19.7,BA=5.64,STAT.D,ExtBa=12.00
20/09/2022,10:57:20,TEMP=20.0,BA=5.64,STAT.D,ExtBa=12.00
20/09/2022,11:00:24,TEMP=20.4,BA=5.64,STAT.D,ExtBa=12.00
20/09/2022,11:03:24,TEMP=20.8,BA=5.64,STAT.D,ExtBa=12.00
20/09/2022,11:06:24,TEMP=21.4,BA=5.64,STAT.D,ExtBa=12.00
20/09/2022,11:09:24,TEMP=21.7,BA=5.64,STAT.D,ExtBa=12.00
20/09/2022,11:12:22,TEMP=21.9,BA=5.60,STAT.F,ExtBa=12.00
20/09/2022,11:24:24,TEMP=21.6,BA=5.64,STAT.D,ExtBa=12.00
20/09/2022,11:27:20,TEMP=21.9,BA=5.64,STAT.D,ExtBa=12.00
20/09/2022,11:30:24,TEMP=22.2,BA=5.64,STAT.D,ExtBa=12.00
20/09/2022,11:33:24,TEMP=22.3,BA=5.64,STAT.D,ExtBa=12.00
20/09/2022,11:36:24,TEMP=22.3,BA=5.64,STAT.D,ExtBa=12.00
20/09/2022,11:39:24,TEMP=22.3,BA=5.64,STAT.D,ExtBa=12.00
20/09/2022,11:42:20,TEMP=22.2,BA=5.56,STAT.D,ExtBa=12.00
20/09/2022,11:45:24,TEMP=22.2,BA=5.56,STAT.D,ExtBa=12.00
20/09/2022,11:48:24,TEMP=22.2,BA=5.56,STAT.D,ExtBa=12.00
20/09/2022,11:51:24,TEMP=22.2,BA=5.60,STAT.D,ExtBa=12.00
20/09/2022,11:54:24,TEMP=22.0,BA=5.60,STAT.D,ExtBa=12.00
20/09/2022,11:57:20,TEMP=21.7,BA=5.60,STAT.D,ExtBa=12.00
20/09/2022,12:00:24,TEMP=21.4,BA=5.64,STAT.D,ExtBa=12.00
20/09/2022,12:12:22,TEMP=19.9,BA=5.64,STAT.F,ExtBa=12.00
20/09/2022,12:24:24,TEMP=20.6,BA=5.64,STAT.D,ExtBa=12.00
20/09/2022,12:27:20,TEMP=21.2,BA=5.64,STAT.D,ExtBa=12.00
20/09/2022,12:30:24,TEMP=21.3,BA=5.64,STAT.D,ExtBa=12.00
20/09/2022,12:42:20,TEMP=20.1,BA=5.64,STAT.D,ExtBa=12.00
20/09/2022,12:45:24,TEMP=20.4,BA=5.64,STAT.D,ExtBa=12.00
20/09/2022,12:57:20,TEMP=19.5,BA=5.64,STAT.D,ExtBa=12.00
20/09/2022,13:09:24,TEMP=19.9,BA=5.64,STAT.D,ExtBa=12.10
20/09/2022,13:12:22,TEMP=20.0,BA=5.56,STAT.F,ExtBa=12.00
20/09/2022,13:24:24,TEMP=19.5,BA=5.64,STAT.D,ExtBa=12.00
20/09/2022,13:27:20,TEMP=19.5,BA=5.64,STAT.D,ExtBa=12.00
20/09/2022,13:39:24,TEMP=19.3,BA=5.64,STAT.D,ExtBa=12.10
20/09/2022,13:42:20,TEMP=19.5,BA=5.56,STAT.D,ExtBa=12.00
20/09/2022,13:54:24,TEMP=18.9,BA=5.64,STAT.D,ExtBa=12.10
20/09/2022,13:57:20,TEMP=18.9,BA=5.64,STAT.D,ExtBa=12.00
20/09/2022,14:09:24,TEMP=18.2,BA=5.64,STAT.D,ExtBa=12.10
20/09/2022,14:12:22,TEMP=18.3,BA=5.56,STAT.F,ExtBa=12.00
20/09/2022,14:24:24,TEMP=18.2,BA=5.64,STAT.D,ExtBa=12.10
20/09/2022,14:27:20,TEMP=18.6,BA=5.64,STAT.D,ExtBa=12.00
20/09/2022,14:39:24,TEMP=18.9,BA=5.64,STAT.D,ExtBa=12.10
20/09/2022,14:42:20,TEMP=19.1,BA=5.60,STAT.D,ExtBa=12.00
20/09/2022,14:54:24,TEMP=18.8,BA=5.64,STAT.D,ExtBa=12.10
20/09/2022,14:57:20,TEMP=18.9,BA=5.64,STAT.D,ExtBa=12.00
20/09/2022,15:09:24,TEMP=18.6,BA=5.64,STAT.D,ExtBa=12.10
20/09/2022,15:12:22,TEMP=18.8,BA=5.60,STAT.F,ExtBa=12.00
20/09/2022,15:14:23,TEMP=19.1,BA=5.60,STAT.A,ExtBa=12.00
20/09/2022,15:27:24,TEMP=18.7,BA=5.64,STAT.D,ExtBa=12.10
20/09/2022,15:30:24,TEMP=18.9,BA=5.64,STAT.D,ExtBa=12.00
20/09/2022,15:32:23,TEMP=19.3,BA=5.64,STAT.A,ExtBa=12.00
20/09/2022,15:44:53,TEMP=18.8,BA=5.64,STAT.A,ExtBa=12.10
20/09/2022,15:56:49,TEMP=18.4,BA=5.64,STAT.C,ExtBa=12.10
20/09/2022,16:06:56,TEMP=18.2,BA=5.64,STAT.A,ExtBa=12.10
20/09/2022,16:15:38,TEMP=18.0,BA=5.64,STAT.A,ExtBa=12.10
20/09/2022,16:23:13,TEMP=17.8,BA=5.64,STAT.A,ExtBa=12.10
20/09/2022,16:29:54,TEMP=17.6,BA=5.64,STAT.A,ExtBa=12.10
20/09/2022,16:35:50,TEMP=17.5,BA=5.60,STAT.B,ExtBa=12.10
20/09/2022,16:45:23,TEMP=17.6,BA=5.56,STAT.D,ExtBa=12.00
20/09/2022,16:48:08,TEMP=17.7,BA=5.56,STAT.A,ExtBa=12.00
20/09/2022,16:57:48,TEMP=17.1,BA=5.56,STAT.A,ExtBa=12.00
20/09/2022,17:05:36,TEMP=16.9,BA=5.64,STAT.A,ExtBa=12.00
20/09/2022,17:12:03,TEMP=16.8,BA=5.64,STAT.A,ExtBa=12.00
20/09/2022,17:17:27,TEMP=16.7,BA=5.64,STAT.A,ExtBa=12.00
20/09/2022,17:22:04,TEMP=16.6,BA=5.64,STAT.A,ExtBa=12.00